Showing default

MIDAS 5 (STRONGBACK), 271

Orbit data source: Space-Track

MIDAS 5 (STRONGBACK), 271 is a payload satellite owned by USAF SSD (US) in LEO that was launched on Mon, 09 Apr 1962 UTC via an ATLAS AGENA B launch vehicle from the Air Force Western Test Range (AFWTR). Payload-class satellites include a variety of spacecraft equipped with specific instruments for various scientific and technological missions. These include communications satellites like Starlink; space stations such as the ISS; scientific satellites like the Hubble; Earth observation satellites from companies like Planet Labs, Umbra, and HawkEye 360; GPS; miniature CubeSats for education and research; and military/defense satellites.

Loading next visibility...
Identifier
271, 1962-010A
Orbit
LEO
Country
Flag of USUS
Related business
Manufacturer
LMSC
Mission
Spacecraft
Bus & Motor
MIDAS, Unknown motor
Mass
~1,543 kg wet, ~840 kg dry
Launch date (UTC)
1962-04-09 (64 years ago)
Launch vehicle
ATLAS AGENA B
Launch site
Air Force Western Test Range (AFWTR)
Object type
Payload
Rocket body
Debris
Shape & HBR
Unknown
Radar Cross Section
Large (>1 m²)

Expand to show TLE details & history
Last TLE update: 16 hours ago

TLE from 16 hours ago
0 MIDAS 5 (STRONGBACK)
1 00271U 62010A   26194.35412928 -.00000018  00000-0 -44003-2 0  9999
2 00271  86.6654 312.0763 0327555 357.5974   2.3350  9.41308308208139
Epoch: 2026-07-13T08:29Z
TLE epoch observation values (Epoch: 2026-07-13T08:29:56.769Z)
Latitude
-0°
Longitude
-106.65009°
Altitude
2,789.081 km
Speed
6.702 km/s
True Right ascension
20h 48m 18s
True Declination
0° 00' 00"
Sunlit
Object was in full shadow at epoch
Visualization orbit readout
Latitude
Unknown
Longitude
Unknown
Altitude
Unknown
Speed
Unknown
Apparent Right ascension
Unknown
Apparent Declination
Unknown
Sunlit
N/A
Visualization observer readout
Local Sidereal Time
12:47:31
Azimuth
Unknown
Elevation
Unknown
Doppler factor
Unknown
Orbital elements
Apogee altitude
3,404.879 km
Perigee altitude
2,784.311 km
Semi-major axis
9,472.732 km
Eccentricity
0.03276
Inclination
86.6654°
RAAN
312.0763°
Arg. of periapsis
357.5974°
True anomaly
2.49444°
Mean anomaly
2.335°
Eccentric anomaly
2.41405°
Mean motion
2.35413 °/min
Orbital period
152.92 mins
BSTAR
-0.0044003
Loading maneuver chart data...
Computing Atmospheric mass density...
Loading historical data...
Loading historical data...
Loading historical data...
Loading historical data...
Loading historical data...
Loading historical data...
Loading historical data...

Documentation

Showing up to 5 results
|